Location: Rounton
(54.4000°N, 1.3500°W)
Time: 05:11:46
(UTC+00:00)

Vanguard 1 - Pass Details

Date: 07 December 2021
Orbit: 652 x 3830 km, 34.2° (Epoch: 17 January)

Event Time Altitude Azimuth Distance (km) Brightness Sun altitude
Exits shadow 02:02:20 35° 151° (SSE) 4,715 13.2 -50.5°
Drops below altitude 10° 02:12:54 10° 122° (ESE) 5,782 14.1 -49.3°
Sets 02:16:59 0° 115° (ESE) 6,432 14.5 -48.8°
